COSMOS 2251 DEB, 35031

Orbit data source: Space-Track

COSMOS 2251 DEB, 35031 is space debris in LEO originally from a launch on Wed, 16 Jun 1993 UTC launched from the Plesetsk Missile And Space Complex (PKMTR). The debris from Iridium 33, an American commercial communications satellite, has been tracked extensively since its accidental collision with the defunct Russian satellite Cosmos 2251 in 2009. This event, occurring at high speed in low Earth orbit (LEO), generated thousands of pieces of space debris, significantly increasing the risk of further collisions. The Iridium 33 debris cloud has impacted space traffic management and orbital debris mitigation strategies, making it a subject of ongoing study in space situational awareness.

Loading next visibility...
Identifier
35031, 1993-036AGU
Orbit
LEO
Country
Flag of CISCIS
Related business
Manufacturer
Unknown
Mission
Spacecraft
Bus & Motor
Unknown
Mass
Unknown
Launch date (UTC)
1993-06-16 (33 years ago)
Launch vehicle
Unknown
Launch site
Plesetsk Missile And Space Complex (PKMTR)
Object type
Payload
Rocket body
Debris
Shape & HBR
Unknown shape, 0.1 m
Radar Cross Section
Small (<0.1 m²)

Expand to show TLE details & history
Last TLE update: 23 hours ago

TLE from 23 hours ago
0 COSMOS 2251 DEB
1 35031U 93036AGU 26237.43977704  .00000292  00000-0  10380-3 0  9992
2 35031  74.0393 148.0680 0019115 186.3223 173.7693 14.38527078689609
Epoch: 2026-08-25T10:33Z
TLE epoch observation values (Epoch: 2026-08-25T10:33:16.736Z)
Latitude
-0.00002°
Longitude
16.04116°
Altitude
779.556 km
Speed
7.457 km/s
True Right ascension
09h 52m 16s
True Declination
0° 00' 00"
Sunlit
Object was in daylight at epoch
Visualization orbit readout
Latitude
Unknown
Longitude
Unknown
Altitude
Unknown
Speed
Unknown
Apparent Right ascension
Unknown
Apparent Declination
Unknown
Sunlit
N/A
Visualization observer readout
Local Sidereal Time
00:36:42
Azimuth
Unknown
Elevation
Unknown
Doppler factor
Unknown
Orbital elements
Apogee altitude
774.637 km
Perigee altitude
747.344 km
Semi-major axis
7,139.127 km
Eccentricity
0.00191
Inclination
74.0393°
RAAN
148.068°
Arg. of periapsis
186.3223°
True anomaly
173.79302°
Mean anomaly
173.7693°
Eccentric anomaly
173.78116°
Mean motion
3.59812 °/min
Orbital period
100.05 mins
BSTAR
0.0001038
Loading maneuver chart data...
Computing Atmospheric mass density...
Loading historical data...
Loading historical data...
Loading historical data...
Loading historical data...
Loading historical data...
Loading historical data...
Loading historical data...

Documentation

Showing up to 5 results
|